Regional Weather Roundup
Issued by NWS

Home | Current Version | Previous Version | Text Only | Print | Product List | Glossary On
Versions: 1 2 3 4 5 6 7 8 9 10 11 12 13 14 15 16 17 18 19 20 21 22 23 24 25 26 27 28 29
000
ASUS42 KTBW 222310
RWRFL
FLORIDA REGIONAL WEATHER ROUNDUP
NATIONAL WEATHER SERVICE TAMPA BAY RUSKIN FL
700 PM EDT WED OCT 22 2014

NOTE: "FAIR" INDICATES FEW OR NO CLOUDS BELOW 12,000 FEET WITH NO
SIGNIFICANT WEATHER AND/OR OBSTRUCTIONS TO VISIBILITY.


FLZ001>010-012>015-112-114-115-230000-
PANHANDLE FLORIDA

CITY           SKY/WX    TMP DP  RH WIND       PRES   REMARKS
PENSACOLA      CLEAR     73  48  41 N7        30.01R
PENSACOLA NAS  CLEAR     72  49  44 N7        30.01R
MILTON NAS     CLEAR     70  46  42 N3        30.02S
CRESTVIEW      CLEAR     69  47  45 N6        30.03S
DUKE FIELD     PTCLDY    71  46  41 N7        30.01S
VALPARAISO     PTCLDY    73  46  37 N8        30.01R
MARY ESTHER    CLEAR     71  43  35 N9        30.00R
PANAMA CITY    FAIR      70  48  45 N5        29.99R
TYNDALL AFB    CLEAR     73  53  48 N3        30.00R
APALACHICOLA   CLEAR     74  55  51 N7        29.98R

STATION/POSITION SKY/WX   TEMP    WIND        PRES    WAVE   SWELL
                          AIR SEA DIR/SP/G            HT/PER HT/PER
                          (F)     (DEG/KT/KT) (MB)    (FT/S) (FT/S)
30.1N   87.6W              76 79   20/ 14/ 16 1015.6S   2/ 5
29.2N   88.2W              74 80   40/ 12/ 16 1016.7R   3/ 5   2/ 8
28.8N   86.0W              74 81   30/ 10/ 14 1015.4R   3/ 5   2/ 5
PANAMA CITY BEAC           73 78  360/  7/  9 1015.6R
CAPE SAN BLAS    NOT AVBL
TOWER C                    73      40/  7/  8 1015.2R
28.5N   84.5W              74 81   40/ 12/ 16 1015.0R   3/ 5

$$
FLZ011-016>038-118-127-128-134-139-239-230000-
NORTH FLORIDA

CITY           SKY/WX    TMP DP  RH WIND       PRES   REMARKS
TALLAHASSEE    CLEAR     74  45  35 N5        30.00R
PERRY          CLEAR     70  50  49 CALM      30.00R
CROSS CITY       N/A     69  55  60 CALM      29.98R
LAKE CITY      FAIR      66  52  59 CALM      30.01R
GAINESVILLE    CLEAR     70  51  51 N7        29.99R
MAYPORT NAS    PTCLDY    68  53  58 NE8       30.01R
JACKSONVILLE   PTCLDY    64  55  72 NE5       30.01R
JAX NAS        CLEAR     71  52  50 NE13      30.02R
JAX CRAIG      CLEAR     66  53  63 NE3       30.02R
JAX CECIL      CLEAR     66  54  63 VRB5      30.01R
FERNANDINA BEA FAIR      70  54  56 NE5       30.01R
ST AUGUSTINE   CLEAR     68  55  63 N9        30.01S

STATION/POSITION SKY/WX   TEMP    WIND        PRES    WAVE   SWELL
                          AIR SEA DIR/SP/G            HT/PER HT/PER
                          (F)     (DEG/KT/KT) (MB)    (FT/S) (FT/S)
SHELL POINT                76      10/  8/ 12   N/A
KEATON BEACH               72      20/  3/  4 1015.5R
CEDAR KEY                  76     360/  5/  8 1014.7R
FERNANDINA                 67 75   30/  5/  8 1015.8S
30.7N   81.3W                 77                N/A     3/ 6
MAYPORT                    68 77   40/ 10/ 12   N/A
31.4N   80.9W              67 76   20/  6/ 10 1016.8R   3/ 6   3/ 6
ST AUGUSTINE               69      20/ 18/ 19 1016.5R

$$
FLZ040-043>046-052-053-057-058-063-144-230000-
INTERIOR CENTRAL FLORIDA

CITY           SKY/WX    TMP DP  RH WIND       PRES   REMARKS
OCALA          CLEAR     73  54  49 N6        29.97R
THE VILLAGES     N/A     75  57  53 NE5       29.87R
LEESBURG       CLEAR     75  56  51 NE7       29.97R
ORLANDO EXEC   CLEAR     75  62  64 NE10      29.96R
ORLANDO INTL   PTCLDY    75  62  64 NE15      29.96R
KISSIMMEE      CLEAR     79  64  61 MISG      29.96R
WINTER HAVEN   PTCLDY    77  57  50 NE6       29.95R
LAKELAND       PTCLDY    79  61  53 CALM      29.95R
BARTOW         FAIR      79  57  47 N5        29.95R
OKEECHOBEE     MOCLDY    73  68  83 MISG      29.94R

$$
FLZ041-047-054-059-064-141-147-230000-
EAST CENTRAL FLORIDA

CITY           SKY/WX    TMP DP  RH WIND       PRES   REMARKS
ORMOND BEACH   CLEAR     68  57  68 NE21      29.99R
DAYTONA BEACH  PTCLDY    71  58  63 N12       29.98S
DELAND         CLEAR     70  59  68 NE7       29.99R
NEW SMYRNA BEA PTCLDY    72  61  68 N12       29.98R
JFK SPACE CTR  PTCLDY    72  63  72 N7        29.96R
TITUSVILLE     PTCLDY    73  63  68 N16       29.96R
CAPE CANAVERAL PTCLDY    73  62  69 N9        29.95R
PATRICK AFB    PTCLDY    75  64  69 N17       29.96R
MELBOURNE      PTCLDY    76  64  66 N15       29.95R
VERO BEACH     PTCLDY    74  62  66 N6        29.94R
FT PIERCE      PTCLDY    75  64  68 CALM      29.94R
STUART         MOCLDY    77  68  73 N6        29.94R

STATION/POSITION SKY/WX   TEMP    WIND        PRES    WAVE   SWELL
                          AIR SEA DIR/SP/G            HT/PER HT/PER
                          (F)     (DEG/KT/KT) (MB)    (FT/S) (FT/S)
28.5N   80.2W              77 82   10/ 16/ 19 1013.9R
28.9N   78.5W              77 80  350/ 16/ 19 1013.6R   3/ 4   2/10
TRIDENT PIER               73 80   10/  7/ 10 1014.0R
28.4N   80.5W                 80                N/A     2/ 4
27.6N   80.2W                 80                N/A     2/13   2/13

$$
FLZ050-056-061-142-242-148-248-149-249-151-251-155-255-
160-260-230000-
WEST CENTRAL FLORIDA

CITY           SKY/WX    TMP DP  RH WIND       PRES   REMARKS
CRYSTAL RIVER  FAIR      72  55  56 NE3       29.96R
INVERNESS      FAIR      72  57  60 CALM      29.97R
BROOKSVILLE    PTCLDY    74  61  63 NE5       29.96R
ZEPHYRHILLS    FAIR      72  57  60 N5        29.96R
CLEARWATER     PTCLDY    75  63  66 N9        29.94R
TAMPA INTL     MOCLDY    76  62  62 NW8       29.94R
TAMPA EXEC     PTCLDY    73  64  73 CALM      29.94R
PLANT CITY     PTCLDY    81  59  47 N3        29.96R
MACDILL AFB    PTCLDY    77  67  72 N6        29.94R
ST PETERSBURG  PTCLDY    78  65  63 N8        29.92R
SARASOTA       MOCLDY    77  62  59 N6        29.92R
VENICE           N/A     81  68  65 MISG      29.93S

STATION/POSITION SKY/WX   TEMP    WIND        PRES    WAVE   SWELL
                          AIR SEA DIR/SP/G            HT/PER HT/PER
                          (F)     (DEG/KT/KT) (MB)    (FT/S) (FT/S)
CEDAR KEY                  76     360/  5/  8 1014.7R
28.5N   84.5W              74 81   40/ 12/ 16 1015.0R   3/ 5
27.3N   84.3W                 82                N/A     3/ 5
CLEARWATER BEACH NOT AVBL
MIDDLE TAMPA BAY           80     320/  6/  7 1013.7R
VENICE                     81 81  340/  5/  6 1012.9R

$$
FLZ066-069-070-075>078-162-262-165-265-230000-
SOUTHWEST FLORIDA AND KEYS

CITY           SKY/WX    TMP DP  RH WIND       PRES   REMARKS
PUNTA GORDA    MOCLDY    79  71  76 NE5       29.94R
FT MYERS       CLOUDY    80  70  71 CALM      29.91R
SOUTHWEST INTL CLOUDY    78  72  81 CALM      29.92R
NAPLES         CLOUDY    80  70  71 SE3       29.91S
MARATHON       CLOUDY    74  32  21 E6        29.92R
KEY WEST NAS   LGT RAIN  73  72  96 E5        29.92R
KEY WEST INTL  RAIN      74  74 100 E7        29.93R

STATION/POSITION SKY/WX   TEMP    WIND        PRES    WAVE   SWELL
                          AIR SEA DIR/SP/G            HT/PER HT/PER
                          (F)     (DEG/KT/KT) (MB)    (FT/S) (FT/S)
VENICE                     81 81  340/  5/  6 1012.9R
NAPLES                     79 83  160/  3/  4 1013.5S
26.0N   85.6W              76 82   90/ 12/ 16 1012.9R   5/ 6   3/ 6
DRY TORTUGAS               78      70/ 16/ 17 1012.0R
NW FL BAY                  77     110/  7/  9 1013.1R
SAND KEY                   75      90/ 13/ 15 1013.0R
SOMBRERO KEY               77      70/ 12/ 13 1014.0R
LONG KEY                   76 79   70/  6/  7 1013.6R
MOLASSES REEF              77 83   CALM  /  6 1013.4R

$$
FLZ067-068-071>074-168-172>174-230000-
SOUTHEAST FLORIDA

CITY           SKY/WX    TMP DP  RH WIND       PRES   REMARKS
W PALM BEACH   MOCLDY    80  70  71 NE6       29.92R
FT LAUDER-EXEC CLOUDY    79  71  76 NE3       29.92R
FT LAUDERDALE  LGT RAIN  80  73  79 E3        29.92R
POMPANO BEACH  LGT RAIN  81  72  74 CALM      29.93R
PEMBROKE PINES LGT RAIN  77  74  90 CALM      29.94R
OPA LOCKA      LGT RAIN  75  72  90 NW5       29.93R
MIAMI          LGT RAIN  75  72  90 CALM      29.93R
WEST KENDALL   LGT RAIN  76  72  87 CALM      29.93R
HOMESTEAD      CLOUDY    74  72  93 NW1       29.93R

STATION/POSITION SKY/WX   TEMP    WIND        PRES    WAVE   SWELL
                          AIR SEA DIR/SP/G            HT/PER HT/PER
                          (F)     (DEG/KT/KT) (MB)    (FT/S) (FT/S)
PORT EVERGLADES            79      90/  2/  3 1013.2
VIRGINIA KEY               77 81   CALM  /  1 1013.7R
LAKE WORTH                 80 83   30/  7/  9 1013.0R
FOWEY ROCKS                79 81  350/  5/  6 1013.7R
SETTLEMENT POINT           80     360/  6/  7 1014.0R

$$




USA.gov is the U.S. government's official web portal to all federal, state and local government web resources and services.